Weather History for Cold Bay, AK

Change the Weather History Date:

Wednesday, April 10, 2013

  Actual Average Record
Temperature  
Mean Temperature 26 °F 33 °F  
Max Temperature 31 °F 38 °F 49 °F (1967)
Min Temperature 20 °F 28 °F 12 °F (1985)
Degree Days  
Heating Degree Days 39 32  
Month to date heating degree days 332 330  
Since 1 July heating degree days 7800 7633  
Cooling Degree Days 0    
Month to date cooling degree days 0  
Year to date cooling degree days 0  
Moisture  
Dew Point 19 °F    
Average Humidity 0    
Maximum Humidity 0    
Minimum Humidity 0    
Precipitation  
Precipitation 0.02 in 0.08 in 1.00 in (2004)
Month to date precipitation 0.72 0.81  
Year to date precipitation 10.34 9.65  
Snow  
Snow 0.20 in 0.30 in 9.00 in (2001)
Month to date snowfall 1.7 3.1  
Since 1 July snowfall 63.8 68.3  
Snow Depth T in    
Sea Level Pressure  
Sea Level Pressure 30.04 in    
Wind  
Wind Speed 10 mph (WNW)    
Max Wind Speed 17 mph    
Max Gust Speed 23 mph    
Visibility 7 miles    
Events Fog , Snow    
T = Trace of Precipitation, MM = Missing Value Source: NWS Daily Summary

Daily Weather History Graph

Daily Weather History Graph

Search for Another Location

Airport:

Trip Planner

Search our weather history database for the weather conditions in past years. The results will help you decide how hot, cold, wet, or windy it might be!

Date:

Astronomy

Apr. 10, 2013 Rise Set
Actual Time 7:58 AM AKDT 9:47 PM AKDT
Civil Twilight 7:19 AM AKDT 10:25 PM AKDT
Nautical Twilight 6:31 AM AKDT 11:14 PM AKDT
Astronomical Twilight 5:36 AM AKDT 12:10 AM AKDT
Moon 7:54 AM AKDT (4/10) 10:47 PM AKDT (4/10)
Length of Visible Light 15h 05m
Length of Day
13h 48m
New Moon, 0% of the Moon is Illuminated
Apr 10
New Moon
Apr 18
First Quarter
Apr 25
Full
May 2
Last Quarter
May 9
New

Hourly Weather History & Observations

Time (AKDT) Temp. Windchill Dew Point Humidity Pressure Visibility Wind Dir Wind Speed Gust Speed Precip Events Conditions
12:53 AM 23.0 °F 12.4 °F 16.0 °F 74% 29.97 in 7.0 mi NW 10.4 mph - 0.00 in Snow Light Snow
1:00 AM 23.0 °F 12.4 °F 17.6 °F 80% 29.96 in 1.8 mi WNW 10.4 mph - 0.00 in Snow Light Snow
1:10 AM 21.2 °F 10.1 °F 17.6 °F 86% 29.96 in 3.0 mi NW 10.4 mph - 0.00 in Snow Light Snow
1:17 AM 21.2 °F 10.1 °F 17.6 °F 86% 29.96 in 9.0 mi NW 10.4 mph - 0.00 in   Overcast
1:29 AM 21.2 °F 9.5 °F 17.6 °F 86% 29.97 in 2.5 mi NW 11.5 mph - 0.00 in Snow Light Snow
1:38 AM 21.2 °F 11.7 °F 17.6 °F 86% 29.97 in 1.8 mi NW 8.1 mph - 0.00 in Snow Light Snow
1:42 AM 21.2 °F 11.7 °F 17.6 °F 86% 29.97 in 2.5 mi NW 8.1 mph - 0.00 in Snow Light Snow
1:49 AM 21.2 °F 12.6 °F 17.6 °F 86% 29.97 in 7.0 mi NW 6.9 mph - 0.00 in Snow Light Snow
1:53 AM 21.9 °F 12.5 °F 18.0 °F 85% 29.97 in 9.0 mi NW 8.1 mph - 0.00 in   Overcast
2:53 AM 23.0 °F 11.7 °F 17.1 °F 78% 29.99 in 3.0 mi NW 11.5 mph - 0.00 in Snow Light Snow
3:14 AM 23.0 °F 14.7 °F 17.6 °F 80% 29.99 in 7.0 mi NW 6.9 mph - 0.00 in Snow Light Snow
3:53 AM 21.9 °F 11.0 °F 17.1 °F 82% 29.99 in 10.0 mi NW 10.4 mph - 0.00 in   Overcast
4:53 AM 23.0 °F 12.4 °F 16.0 °F 74% 29.99 in 10.0 mi NW 10.4 mph - N/A   Overcast
5:53 AM 23.0 °F 13.1 °F 16.0 °F 74% 30.00 in 10.0 mi NW 9.2 mph - N/A   Overcast
6:09 AM 23.0 °F 13.9 °F 15.8 °F 74% 29.99 in 10.0 mi NW 8.1 mph - N/A   Overcast
6:53 AM 21.0 °F 14.6 °F 15.1 °F 78% 30.00 in 10.0 mi NW 4.6 mph - N/A   Overcast
7:01 AM 21.2 °F 14.9 °F 15.8 °F 80% 30.00 in 10.0 mi NW 4.6 mph - N/A   Overcast
7:53 AM 23.0 °F 18.4 °F 16.0 °F 74% 30.01 in 8.0 mi WNW 3.5 mph - 0.00 in Snow Light Snow
8:53 AM 24.1 °F - 16.0 °F 71% 30.01 in 9.0 mi Calm Calm - 0.00 in Snow Light Snow
9:48 AM 24.8 °F 20.5 °F 19.4 °F 80% 30.02 in 3.0 mi South 3.5 mph - 0.00 in Snow Light Snow
9:53 AM 24.1 °F 19.7 °F 19.0 °F 81% 30.02 in 4.0 mi South 3.5 mph - 0.00 in Snow Light Snow
10:53 AM 27.0 °F 18.0 °F 19.9 °F 75% 30.03 in 8.0 mi WSW 9.2 mph - 0.00 in Snow Light Snow
11:37 AM 28.4 °F 18.5 °F 21.2 °F 74% 30.03 in 9.0 mi WSW 11.5 mph - 0.00 in   Mostly Cloudy
11:46 AM 28.4 °F 18.5 °F 21.2 °F 74% 30.03 in 10.0 mi WSW 11.5 mph - 0.00 in   Scattered Clouds
11:53 AM 28.0 °F 18.1 °F 23.0 °F 81% 30.04 in 9.0 mi SW 11.5 mph - 0.00 in Snow Light Snow
11:56 AM 28.4 °F 18.5 °F 23.0 °F 80% 30.03 in 7.0 mi SW 11.5 mph - 0.00 in Snow Light Snow
12:13 PM 28.4 °F 17.0 °F 23.0 °F 80% 30.03 in 2.0 mi WSW 15.0 mph - 0.00 in Snow Light Snow
12:16 PM 28.4 °F 17.5 °F 23.0 °F 80% 30.03 in 1.5 mi WSW 13.8 mph - 0.00 in Snow Light Snow
12:23 PM 26.6 °F 16.2 °F 23.0 °F 86% 30.04 in 1.0 mi WSW 11.5 mph - 0.00 in Snow Light Snow
12:37 PM 28.4 °F 17.5 °F 24.8 °F 86% 30.04 in 1.5 mi WSW 13.8 mph - 0.00 in Snow Light Snow
12:43 PM 26.6 °F 15.2 °F 23.0 °F 86% 30.04 in 0.5 mi West 13.8 mph - 0.00 in Fog , Snow Snow
12:46 PM 26.6 °F 14.7 °F 23.0 °F 86% 30.04 in 0.2 mi WSW 15.0 mph - 0.01 in Fog , Snow Heavy Snow
12:50 PM 26.6 °F 15.7 °F 23.0 °F 86% 30.04 in 3.0 mi WSW 12.7 mph - 0.01 in Snow Light Snow
12:53 PM 26.1 °F 14.0 °F 23.0 °F 88% 30.05 in 6.0 mi WSW 15.0 mph - 0.02 in Snow Light Snow
1:02 PM 28.4 °F 18.0 °F 23.0 °F 80% 30.04 in 9.0 mi WSW 12.7 mph - 0.00 in Snow Light Snow
1:16 PM 30.2 °F 19.8 °F 23.0 °F 75% 30.04 in 7.0 mi WSW 13.8 mph - 0.00 in   Mostly Cloudy
1:39 PM 28.4 °F 17.0 °F 21.2 °F 74% 30.05 in 9.0 mi WNW 15.0 mph - 0.00 in   Overcast
1:53 PM 30.0 °F 18.7 °F 21.9 °F 72% 30.06 in 10.0 mi NW 16.1 mph 20.7 mph 0.00 in Snow Light Snow
2:00 PM 28.4 °F 18.0 °F 21.2 °F 74% 30.05 in 9.0 mi NW 12.7 mph 20.7 mph 0.00 in Snow Light Snow
2:13 PM 28.4 °F 16.6 °F 21.2 °F 74% 30.05 in 9.0 mi WNW 16.1 mph 23.0 mph 0.00 in Snow Light Snow
2:53 PM 30.0 °F 20.0 °F 21.0 °F 69% 30.06 in 9.0 mi NW 12.7 mph - 0.00 in Snow Light Snow
3:53 PM 30.0 °F 19.1 °F 21.0 °F 69% 30.06 in 10.0 mi NW 15.0 mph - 0.00 in   Overcast
4:12 PM 28.4 °F 18.0 °F 21.2 °F 74% 30.06 in 4.0 mi NNW 12.7 mph 19.6 mph 0.00 in Snow Light Snow
4:36 PM 28.4 °F 18.5 °F 21.2 °F 74% 30.06 in 10.0 mi NNW 11.5 mph - 0.00 in   Overcast
4:53 PM 28.9 °F 17.7 °F 21.0 °F 72% 30.07 in 10.0 mi NNW 15.0 mph - 0.00 in   Overcast
5:53 PM 28.0 °F 17.0 °F 19.0 °F 69% 30.08 in 10.0 mi NW 13.8 mph - 0.00 in   Overcast
6:53 PM 27.0 °F 15.2 °F 18.0 °F 69% 30.09 in 6.0 mi NNW 15.0 mph - 0.00 in Snow Light Snow
7:21 PM 26.6 °F 14.7 °F 17.6 °F 69% 30.08 in 8.0 mi NNW 15.0 mph - 0.00 in Snow Light Snow
7:29 PM 26.6 °F 15.7 °F 17.6 °F 69% 30.08 in 8.0 mi NNW 12.7 mph - 0.00 in Snow Light Snow
7:38 PM 26.6 °F 16.8 °F 17.6 °F 69% 30.08 in 8.0 mi NW 10.4 mph - 0.00 in Snow Light Snow
7:53 PM 26.1 °F 14.0 °F 17.1 °F 69% 30.09 in 9.0 mi NNW 15.0 mph - 0.00 in   Overcast
8:53 PM 24.1 °F 13.1 °F 17.1 °F 75% 30.10 in 10.0 mi NNW 11.5 mph - 0.00 in   Overcast
9:33 PM 24.8 °F 13.4 °F 15.8 °F 69% 30.10 in 9.0 mi NNW 12.7 mph - 0.00 in   Overcast
9:53 PM 24.1 °F 13.7 °F 17.1 °F 75% 30.12 in 10.0 mi NNW 10.4 mph - 0.00 in   Overcast
10:53 PM 23.0 °F 13.1 °F 15.1 °F 72% 30.12 in 10.0 mi NNW 9.2 mph - 0.00 in   Overcast
11:28 PM 23.0 °F 13.1 °F 14.0 °F 68% 30.13 in 10.0 mi NW 9.2 mph - N/A   Overcast
11:53 PM 23.0 °F 10.1 °F 15.1 °F 72% 30.14 in 9.0 mi NW 15.0 mph - 0.00 in   Overcast